Location: Titusville
(28.6120°N, 80.8080°W)
Time: 01:22:41
(UTC-05:00)

N. Korean satellite - Visible Passes

Search period start: 17 December 2017 00:00
Search period end: 27 December 2017 00:00
Orbit: 461 x 513 km, 97.2° (Epoch: 16 December)

Date Brightness Start Highest point End Pass type
(mag) Time Alt. Az. Time Alt. Az. Time Alt. Az.
17 Dec 9.8 06:15:02 10° NE 06:17:23 16° E 06:19:44 10° SE visible
17 Dec 6.7 18:16:36 10° SSE 18:20:12 53° ENE 18:23:52 10° N visible
18 Dec 7.7 17:53:42 10° SE 17:56:45 24° ENE 17:59:50 10° NNE visible
18 Dec 10.0 19:28:15 10° SW 19:30:11 14° W 19:32:09 10° WNW visible
19 Dec 8.8 19:03:17 10° SSW 19:06:31 29° W 19:09:49 10° NW visible
20 Dec 8.5 06:36:54 10° NNE 06:40:14 34° E 06:43:29 10° SSE visible
20 Dec 7.0 18:39:15 10° S 18:42:56 66° W 18:46:40 10° NNW visible
21 Dec 9.8 06:14:17 10° NE 06:16:34 16° E 06:18:48 10° SE visible
21 Dec 6.8 18:15:47 10° SSE 18:19:24 53° ENE 18:23:04 10° N visible
22 Dec 7.8 17:52:53 10° SE 17:55:56 24° ENE 17:59:00 10° NNE visible
22 Dec 9.9 19:27:21 10° SW 19:29:22 14° W 19:31:24 10° WNW visible
23 Dec 8.7 19:02:25 10° SSW 19:05:41 29° W 19:09:01 10° NW visible
24 Dec 8.6 06:36:05 10° NNE 06:39:21 33° E 06:42:34 10° SSE visible
24 Dec 7.0 18:38:23 10° S 18:42:06 67° W 18:45:50 10° NNW visible
25 Dec 9.8 06:13:30 10° ENE 06:15:40 15° E 06:17:49 10° SE visible
25 Dec 6.8 18:14:55 10° SSE 18:18:32 52° ENE 18:22:12 10° N visible
26 Dec 7.8 17:52:02 10° SE 17:55:04 24° ENE 17:58:08 10° NNE visible
26 Dec 9.9 19:26:25 10° SW 19:28:29 14° W 19:30:35 10° WNW visible
